LNE1429 SPJC-SEGU

Flight info

Callsign LNE1429
Flight time 1h 42m
Altitude 36000
Route ISREN UL780 EVRED
Aircraft A320/M-SDE3FGHIRWY/LB1

Departure

Time 2026-04-21 15:08
Airport Jorge Chávez International Airport (SPJC)

Arrival

Time 2026-04-21 16:51
Airport José Joaquín de Olmedo International Airport (SEGU)
Time Latitude Longitude Altitude Speed Heading
2026-04-21 14:33 -12.02402 -77.10902 92 ft 0 kts 64°
2026-04-21 14:45 -12.02402 -77.10903 92 ft 0 kts 64°
2026-04-21 14:56 -12.02407 -77.10913 91 ft 2 kts 64°
2026-04-21 14:56 -12.02414 -77.10927 92 ft 2 kts 64°
2026-04-21 14:56 -12.02421 -77.10942 92 ft 2 kts 64°
2026-04-21 14:57 -12.02428 -77.10957 92 ft 2 kts 64°
2026-04-21 14:57 -12.02435 -77.10971 92 ft 2 kts 59°
2026-04-21 14:57 -12.02446 -77.10982 90 ft 2 kts 30°
2026-04-21 14:57 -12.02460 -77.10990 91 ft 2 kts 355°
2026-04-21 14:58 -12.02471 -77.10987 91 ft 0 kts 330°
2026-04-21 15:00 -12.02470 -77.10987 91 ft 0 kts 330°
2026-04-21 15:00 -12.02448 -77.11003 92 ft 3 kts 317°
2026-04-21 15:00 -12.02443 -77.11009 91 ft 0 kts 310°
2026-04-21 15:01 -12.02437 -77.11017 91 ft 3 kts 310°
2026-04-21 15:01 -12.02422 -77.11040 91 ft 5 kts 299°
2026-04-21 15:01 -12.02398 -77.11084 90 ft 9 kts 298°
2026-04-21 15:01 -12.02349 -77.11140 89 ft 13 kts 330°
2026-04-21 15:02 -12.02263 -77.11184 89 ft 15 kts 333°
2026-04-21 15:02 -12.02165 -77.11236 88 ft 17 kts 332°
2026-04-21 15:02 -12.02048 -77.11291 83 ft 20 kts 333°
2026-04-21 15:02 -12.01922 -77.11355 68 ft 20 kts 334°
2026-04-21 15:03 -12.01797 -77.11416 71 ft 19 kts 335°
2026-04-21 15:03 -12.01681 -77.11473 74 ft 18 kts 334°
2026-04-21 15:03 -12.01581 -77.11523 70 ft 14 kts 334°
2026-04-21 15:03 -12.01507 -77.11560 71 ft 9 kts 334°
2026-04-21 15:04 -12.01464 -77.11581 70 ft 5 kts 335°
2026-04-21 15:04 -12.01435 -77.11595 70 ft 5 kts 335°
2026-04-21 15:04 -12.01396 -77.11613 66 ft 7 kts 335°
2026-04-21 15:04 -12.01343 -77.11639 67 ft 10 kts 334°
2026-04-21 15:05 -12.01274 -77.11674 67 ft 13 kts 334°
2026-04-21 15:05 -12.01071 -77.11774 56 ft 20 kts 334°
2026-04-21 15:05 -12.00938 -77.11841 61 ft 23 kts 334°
2026-04-21 15:06 -12.00786 -77.11915 57 ft 24 kts 335°
2026-04-21 15:06 -12.00685 -77.11972 52 ft 12 kts 314°
2026-04-21 15:06 -12.00688 -77.12049 50 ft 12 kts 245°
2026-04-21 15:06 -12.00751 -77.12104 53 ft 13 kts 187°
2026-04-21 15:07 -12.00839 -77.12095 52 ft 12 kts 167°
2026-04-21 15:07 -12.00891 -77.12072 52 ft 0 kts 153°
2026-04-21 15:07 -12.00989 -77.12020 55 ft 49 kts 153°
2026-04-21 15:08 -12.01507 -77.11769 63 ft 113 kts 153°
2026-04-21 15:08 -12.02381 -77.11336 89 ft 163 kts 155°
2026-04-21 15:08 -12.03432 -77.10835 629 ft 165 kts 156°
2026-04-21 15:08 -12.04483 -77.10336 1320 ft 167 kts 155°
2026-04-21 15:09 -12.05597 -77.09797 1725 ft 187 kts 154°
2026-04-21 15:09 -12.06811 -77.09185 2140 ft 202 kts 154°
2026-04-21 15:09 -12.08137 -77.08511 2485 ft 225 kts 154°
2026-04-21 15:09 -12.09620 -77.07771 2905 ft 249 kts 154°
2026-04-21 15:10 -12.11218 -77.06979 3654 ft 258 kts 154°
2026-04-21 15:10 -12.12889 -77.06186 4513 ft 263 kts 160°
2026-04-21 15:10 -12.14680 -77.06055 5314 ft 269 kts 193°
2026-04-21 15:10 -12.16357 -77.07000 5858 ft 278 kts 225°
2026-04-21 15:11 -12.17284 -77.08711 6000 ft 280 kts 258°
2026-04-21 15:11 -12.17275 -77.10698 6030 ft 282 kts 278°
2026-04-21 15:11 -12.16859 -77.12657 6029 ft 282 kts 282°
2026-04-21 15:11 -12.16405 -77.14609 6031 ft 283 kts 282°
2026-04-21 15:12 -12.15947 -77.16564 6030 ft 283 kts 282°
2026-04-21 15:12 -12.15521 -77.18530 6029 ft 283 kts 278°
2026-04-21 15:12 -12.15355 -77.19875 6032 ft 282 kts 274°
2026-04-21 15:12 -12.15234 -77.21876 6028 ft 282 kts 271°
2026-04-21 15:13 -12.15160 -77.23880 6025 ft 284 kts 272°
2026-04-21 15:13 -12.14718 -77.25845 6026 ft 287 kts 291°
2026-04-21 15:13 -12.13643 -77.27567 6195 ft 293 kts 313°
2026-04-21 15:13 -12.12046 -77.28870 7042 ft 294 kts 325°
2026-04-21 15:14 -12.10356 -77.30056 7877 ft 295 kts 325°
2026-04-21 15:14 -12.08630 -77.31267 8698 ft 298 kts 325°
2026-04-21 15:14 -12.06916 -77.32469 9503 ft 300 kts 325°
2026-04-21 15:14 -12.05185 -77.33679 10245 ft 305 kts 325°
2026-04-21 15:15 -12.03369 -77.34946 10476 ft 327 kts 325°
2026-04-21 15:15 -12.01446 -77.36288 10894 ft 339 kts 325°
2026-04-21 15:15 -11.99488 -77.37657 11588 ft 342 kts 325°
2026-04-21 15:15 -11.97527 -77.39031 12371 ft 342 kts 325°
2026-04-21 15:16 -11.95560 -77.40410 13117 ft 343 kts 326°
2026-04-21 15:16 -11.93589 -77.41789 13854 ft 344 kts 326°
2026-04-21 15:16 -11.91606 -77.43174 14474 ft 347 kts 326°
2026-04-21 15:16 -11.89604 -77.44570 15042 ft 350 kts 326°
2026-04-21 15:17 -11.87583 -77.45977 15592 ft 354 kts 326°
2026-04-21 15:17 -11.85511 -77.47421 16145 ft 358 kts 326°
2026-04-21 15:17 -11.83448 -77.48862 16667 ft 361 kts 326°
2026-04-21 15:17 -11.81363 -77.50319 17191 ft 365 kts 326°
2026-04-21 15:18 -11.79257 -77.51791 17710 ft 369 kts 326°
2026-04-21 15:18 -11.77124 -77.53265 18234 ft 372 kts 327°
2026-04-21 15:18 -11.74919 -77.54688 18668 ft 376 kts 329°
2026-04-21 15:18 -11.72672 -77.56066 19137 ft 378 kts 329°
2026-04-21 15:19 -11.70393 -77.57430 19599 ft 381 kts 330°
2026-04-21 15:19 -11.68099 -77.58799 20071 ft 383 kts 330°
2026-04-21 15:19 -11.65792 -77.60187 20548 ft 386 kts 329°
2026-04-21 15:19 -11.63479 -77.61591 21021 ft 388 kts 329°
2026-04-21 15:20 -11.61156 -77.63011 21483 ft 391 kts 329°
2026-04-21 15:20 -11.58821 -77.64444 21934 ft 394 kts 329°
2026-04-21 15:20 -11.56462 -77.65893 22381 ft 396 kts 329°
2026-04-21 15:20 -11.54093 -77.67345 22846 ft 399 kts 329°
2026-04-21 15:21 -11.51705 -77.68811 23305 ft 402 kts 329°
2026-04-21 15:21 -11.49304 -77.70282 23718 ft 404 kts 329°
2026-04-21 15:21 -11.46884 -77.71764 24082 ft 407 kts 329°
2026-04-21 15:21 -11.44417 -77.73274 24456 ft 409 kts 329°
2026-04-21 15:22 -11.42531 -77.74429 24719 ft 411 kts 329°
2026-04-21 15:22 -11.42389 -77.74516 24738 ft 411 kts 329°
2026-04-21 15:22 -11.41358 -77.75147 24889 ft 412 kts 329°
2026-04-21 15:22 -11.39031 -77.76572 25217 ft 414 kts 329°
2026-04-21 15:23 -11.37984 -77.77212 25353 ft 416 kts 329°
2026-04-21 15:23 -11.37104 -77.77751 25467 ft 417 kts 329°
2026-04-21 15:24 -11.34623 -77.79268 25806 ft 419 kts 329°
2026-04-21 15:24 -11.32118 -77.80801 26144 ft 421 kts 329°
2026-04-21 15:24 -11.29642 -77.82317 26482 ft 423 kts 329°
2026-04-21 15:25 -11.29291 -77.82532 26517 ft 424 kts 329°
2026-04-21 15:25 -11.27681 -77.83515 26732 ft 424 kts 329°
2026-04-21 15:25 -11.25147 -77.85065 27047 ft 426 kts 329°
2026-04-21 15:25 -11.22602 -77.86626 27380 ft 428 kts 329°
2026-04-21 15:26 -11.20036 -77.88195 27641 ft 431 kts 329°
2026-04-21 15:26 -11.17463 -77.89768 27955 ft 433 kts 329°
2026-04-21 15:26 -11.14870 -77.91352 28225 ft 436 kts 329°
2026-04-21 15:26 -11.12262 -77.92945 28493 ft 439 kts 329°
2026-04-21 15:27 -11.09639 -77.94546 28819 ft 440 kts 329°
2026-04-21 15:27 -11.07011 -77.96149 29097 ft 442 kts 329°
2026-04-21 15:27 -11.04309 -77.97748 29383 ft 444 kts 331°
2026-04-21 15:27 -11.01613 -77.99225 29649 ft 446 kts 333°
2026-04-21 15:28 -10.98805 -78.00677 29894 ft 449 kts 334°
2026-04-21 15:28 -10.96004 -78.02089 30146 ft 451 kts 334°
2026-04-21 15:28 -10.93187 -78.03510 30364 ft 453 kts 334°
2026-04-21 15:28 -10.90364 -78.04950 30610 ft 454 kts 334°
2026-04-21 15:29 -10.87546 -78.06411 30855 ft 454 kts 333°
2026-04-21 15:29 -10.84740 -78.07885 31129 ft 454 kts 333°
2026-04-21 15:29 -10.81939 -78.09366 31366 ft 455 kts 333°
2026-04-21 15:29 -10.79132 -78.10853 31599 ft 455 kts 333°
2026-04-21 15:30 -10.76322 -78.12333 31909 ft 454 kts 333°
2026-04-21 15:30 -10.73514 -78.13807 32212 ft 453 kts 333°
2026-04-21 15:30 -10.70718 -78.15270 32539 ft 451 kts 334°
2026-04-21 15:30 -10.67926 -78.16731 32848 ft 450 kts 334°
2026-04-21 15:31 -10.65107 -78.18207 33175 ft 449 kts 334°
2026-04-21 15:31 -10.62336 -78.19658 33510 ft 448 kts 334°
2026-04-21 15:31 -10.59568 -78.21106 33836 ft 446 kts 334°
2026-04-21 15:31 -10.56808 -78.22548 34167 ft 445 kts 334°
2026-04-21 15:32 -10.54062 -78.23986 34454 ft 444 kts 334°
2026-04-21 15:32 -10.51322 -78.25422 34713 ft 443 kts 334°
2026-04-21 15:32 -10.48588 -78.26857 34981 ft 442 kts 334°
2026-04-21 15:32 -10.45862 -78.28283 35231 ft 441 kts 334°
2026-04-21 15:33 -10.43134 -78.29709 35474 ft 440 kts 334°
2026-04-21 15:33 -10.40374 -78.31149 35714 ft 439 kts 335°
2026-04-21 15:33 -10.37251 -78.32777 35972 ft 439 kts 335°
2026-04-21 15:34 -10.34535 -78.34196 36078 ft 438 kts 335°
2026-04-21 15:34 -10.31838 -78.35606 36101 ft 435 kts 335°
2026-04-21 15:34 -10.26469 -78.38416 36100 ft 434 kts 335°
2026-04-21 15:35 -10.21104 -78.41212 36098 ft 433 kts 335°
2026-04-21 15:35 -10.15741 -78.44001 36098 ft 433 kts 335°
2026-04-21 15:36 -10.10380 -78.46795 36098 ft 433 kts 335°
2026-04-21 15:36 -10.06871 -78.48632 36114 ft 433 kts 335°
2026-04-21 15:37 -10.01517 -78.51438 36115 ft 433 kts 335°
2026-04-21 15:37 -9.96119 -78.54250 36107 ft 433 kts 335°
2026-04-21 15:38 -9.90749 -78.57040 36122 ft 434 kts 335°
2026-04-21 15:38 -9.85378 -78.59835 36125 ft 434 kts 335°
2026-04-21 15:39 -9.80005 -78.62632 36126 ft 434 kts 335°
2026-04-21 15:39 -9.74635 -78.65434 36124 ft 434 kts 335°
2026-04-21 15:40 -9.70120 -78.67643 36127 ft 432 kts 342°
2026-04-21 15:40 -9.64348 -78.69286 36076 ft 431 kts 347°
2026-04-21 15:41 -9.58556 -78.70849 36066 ft 431 kts 347°
2026-04-21 15:41 -9.52755 -78.72423 36060 ft 432 kts 347°
2026-04-21 15:42 -9.46943 -78.73997 36045 ft 432 kts 347°
2026-04-21 15:42 -9.41089 -78.75581 36049 ft 433 kts 347°
2026-04-21 15:43 -9.35277 -78.77149 36040 ft 433 kts 347°
2026-04-21 15:43 -9.29458 -78.78723 36041 ft 433 kts 347°
2026-04-21 15:44 -9.23602 -78.80308 36032 ft 433 kts 347°
2026-04-21 15:44 -9.17771 -78.81887 36030 ft 434 kts 347°
2026-04-21 15:45 -9.11935 -78.83467 36030 ft 434 kts 347°
2026-04-21 15:45 -9.06092 -78.85041 36052 ft 435 kts 347°
2026-04-21 15:46 -9.00244 -78.86625 36058 ft 435 kts 347°
2026-04-21 15:46 -8.94388 -78.88203 36062 ft 435 kts 347°
2026-04-21 15:47 -8.88530 -78.89781 36073 ft 436 kts 347°
2026-04-21 15:47 -8.82671 -78.91362 36066 ft 436 kts 347°
2026-04-21 15:48 -8.76809 -78.92937 36079 ft 436 kts 347°
2026-04-21 15:48 -8.70940 -78.94518 36077 ft 436 kts 347°
2026-04-21 15:49 -8.65072 -78.96098 36079 ft 437 kts 347°
2026-04-21 15:49 -8.59163 -78.97685 36100 ft 437 kts 347°
2026-04-21 15:50 -8.53285 -78.99268 36073 ft 437 kts 347°
2026-04-21 15:50 -8.47408 -79.00852 36082 ft 437 kts 347°
2026-04-21 15:51 -8.41530 -79.02437 36081 ft 437 kts 347°
2026-04-21 15:51 -8.35653 -79.04021 36076 ft 437 kts 347°
2026-04-21 15:52 -8.29774 -79.05606 36073 ft 437 kts 347°
2026-04-21 15:52 -8.23895 -79.07176 36074 ft 437 kts 348°
2026-04-21 15:53 -8.18020 -79.08744 36057 ft 437 kts 348°
2026-04-21 15:53 -8.12149 -79.10326 36055 ft 437 kts 348°
2026-04-21 15:54 -8.06230 -79.11574 36056 ft 434 kts 355°
2026-04-21 15:54 -8.00239 -79.12324 36059 ft 434 kts 355°
2026-04-21 15:55 -7.94214 -79.13084 36070 ft 434 kts 355°
2026-04-21 15:55 -7.88227 -79.13842 36068 ft 434 kts 355°
2026-04-21 15:56 -7.82237 -79.14601 36073 ft 434 kts 355°
2026-04-21 15:56 -7.76252 -79.15353 36076 ft 434 kts 355°
2026-04-21 15:57 -7.70266 -79.16106 36094 ft 434 kts 355°
2026-04-21 15:57 -7.64273 -79.16860 36094 ft 433 kts 355°
2026-04-21 15:58 -7.58292 -79.17616 36092 ft 433 kts 355°
2026-04-21 15:58 -7.52309 -79.18377 36095 ft 433 kts 355°
2026-04-21 15:59 -7.46322 -79.19140 36107 ft 434 kts 355°
2026-04-21 15:59 -7.40328 -79.19890 36103 ft 434 kts 355°
2026-04-21 16:00 -7.34335 -79.20646 36102 ft 434 kts 355°
2026-04-21 16:00 -7.28337 -79.21396 36121 ft 434 kts 355°
2026-04-21 16:01 -7.22304 -79.22154 36121 ft 434 kts 355°
2026-04-21 16:01 -7.16305 -79.22912 36135 ft 435 kts 355°
2026-04-21 16:02 -7.10301 -79.23676 36139 ft 435 kts 355°
2026-04-21 16:02 -7.04300 -79.24435 36131 ft 435 kts 355°
2026-04-21 16:03 -6.98275 -79.25187 36144 ft 437 kts 355°
2026-04-21 16:03 -6.92242 -79.25945 36144 ft 437 kts 355°
2026-04-21 16:04 -6.86205 -79.26701 36159 ft 438 kts 355°
2026-04-21 16:04 -6.80164 -79.27463 36159 ft 438 kts 355°
2026-04-21 16:05 -6.74121 -79.28224 36103 ft 437 kts 355°
2026-04-21 16:05 -6.68085 -79.28981 36120 ft 437 kts 355°
2026-04-21 16:06 -6.62040 -79.29737 36121 ft 437 kts 355°
2026-04-21 16:06 -6.55959 -79.30503 36125 ft 437 kts 355°
2026-04-21 16:07 -6.49921 -79.31264 36125 ft 437 kts 355°
2026-04-21 16:07 -6.43883 -79.32022 36126 ft 437 kts 355°
2026-04-21 16:08 -6.34819 -79.33166 36137 ft 438 kts 355°
2026-04-21 16:09 -6.28783 -79.33922 36134 ft 437 kts 355°
2026-04-21 16:09 -6.22745 -79.34676 36134 ft 437 kts 355°
2026-04-21 16:10 -6.16708 -79.35434 36131 ft 437 kts 355°
2026-04-21 16:10 -6.11690 -79.36065 36127 ft 437 kts 355°
2026-04-21 16:11 -6.05649 -79.36823 36130 ft 437 kts 355°
2026-04-21 16:11 -5.99613 -79.37580 36126 ft 437 kts 355°
2026-04-21 16:12 -5.93581 -79.38333 36121 ft 437 kts 355°
2026-04-21 16:12 -5.87497 -79.39097 36112 ft 438 kts 355°
2026-04-21 16:13 -5.81459 -79.39856 36114 ft 438 kts 355°
2026-04-21 16:13 -5.75412 -79.40615 36119 ft 438 kts 355°
2026-04-21 16:14 -5.69354 -79.41375 36119 ft 438 kts 355°
2026-04-21 16:14 -5.63299 -79.42131 36129 ft 439 kts 355°
2026-04-21 16:15 -5.57234 -79.42881 36113 ft 440 kts 355°
2026-04-21 16:15 -5.51147 -79.43644 36126 ft 442 kts 355°
2026-04-21 16:16 -5.45036 -79.44407 36128 ft 443 kts 355°
2026-04-21 16:16 -5.38927 -79.45171 36145 ft 443 kts 355°
2026-04-21 16:17 -5.32794 -79.45940 36153 ft 444 kts 355°
2026-04-21 16:17 -5.26663 -79.46713 36159 ft 444 kts 355°
2026-04-21 16:18 -5.20529 -79.47482 36180 ft 444 kts 355°
2026-04-21 16:18 -5.14402 -79.48246 36185 ft 444 kts 355°
2026-04-21 16:19 -5.08237 -79.49017 36199 ft 444 kts 355°
2026-04-21 16:19 -5.02116 -79.49780 36200 ft 443 kts 355°
2026-04-21 16:20 -4.95996 -79.50540 36200 ft 443 kts 355°
2026-04-21 16:20 -4.89887 -79.51303 36199 ft 443 kts 355°
2026-04-21 16:21 -4.83772 -79.52066 36196 ft 443 kts 355°
2026-04-21 16:21 -4.77654 -79.52826 36184 ft 443 kts 355°
2026-04-21 16:22 -4.71535 -79.53592 36178 ft 443 kts 355°
2026-04-21 16:22 -4.65415 -79.54363 36177 ft 443 kts 355°
2026-04-21 16:23 -4.59288 -79.55131 36175 ft 443 kts 355°
2026-04-21 16:23 -4.53125 -79.55902 36174 ft 444 kts 355°
2026-04-21 16:24 -4.46999 -79.56662 36165 ft 444 kts 355°
2026-04-21 16:24 -4.40864 -79.57453 36138 ft 445 kts 355°
2026-04-21 16:25 -4.34724 -79.58251 36124 ft 445 kts 355°
2026-04-21 16:25 -4.28580 -79.59047 36130 ft 446 kts 355°
2026-04-21 16:26 -4.22427 -79.59834 36131 ft 446 kts 355°
2026-04-21 16:26 -4.16274 -79.60620 36160 ft 446 kts 355°
2026-04-21 16:27 -4.10121 -79.61410 36144 ft 446 kts 355°
2026-04-21 16:27 -4.07034 -79.61808 35408 ft 451 kts 355°
2026-04-21 16:27 -4.03928 -79.62210 34863 ft 448 kts 354°
2026-04-21 16:27 -4.00844 -79.62607 34327 ft 445 kts 354°
2026-04-21 16:28 -3.97783 -79.62998 33744 ft 443 kts 354°
2026-04-21 16:28 -3.94742 -79.63385 33218 ft 439 kts 354°
2026-04-21 16:28 -3.91723 -79.63771 32685 ft 435 kts 354°
2026-04-21 16:28 -3.88730 -79.64152 32161 ft 432 kts 354°
2026-04-21 16:29 -3.85716 -79.64537 31631 ft 430 kts 353°
2026-04-21 16:29 -3.82754 -79.64917 31120 ft 427 kts 353°
2026-04-21 16:29 -3.79826 -79.65293 30617 ft 424 kts 353°
2026-04-21 16:29 -3.76910 -79.65671 30112 ft 422 kts 353°
2026-04-21 16:30 -3.74011 -79.66045 29586 ft 418 kts 354°
2026-04-21 16:30 -3.71145 -79.66414 29130 ft 413 kts 354°
2026-04-21 16:30 -3.68312 -79.66778 28670 ft 408 kts 354°
2026-04-21 16:30 -3.65512 -79.67137 28228 ft 404 kts 354°
2026-04-21 16:31 -3.62725 -79.67494 27782 ft 401 kts 353°
2026-04-21 16:31 -3.59976 -79.67846 27333 ft 398 kts 354°
2026-04-21 16:31 -3.57234 -79.68194 26872 ft 396 kts 354°
2026-04-21 16:31 -3.54514 -79.68537 26415 ft 394 kts 353°
2026-04-21 16:32 -3.51797 -79.68883 25952 ft 392 kts 354°
2026-04-21 16:32 -3.49103 -79.69230 25420 ft 390 kts 354°
2026-04-21 16:32 -3.46414 -79.69578 24935 ft 389 kts 353°
2026-04-21 16:32 -3.43730 -79.69923 24448 ft 388 kts 354°
2026-04-21 16:33 -3.41052 -79.70266 23949 ft 388 kts 354°
2026-04-21 16:33 -3.38367 -79.70609 23409 ft 389 kts 353°
2026-04-21 16:33 -3.35700 -79.70950 22894 ft 382 kts 353°
2026-04-21 16:33 -3.33093 -79.71284 22411 ft 373 kts 352°
2026-04-21 16:34 -3.30549 -79.71613 21959 ft 364 kts 352°
2026-04-21 16:34 -3.28068 -79.71932 21525 ft 356 kts 351°
2026-04-21 16:34 -3.25632 -79.72244 21055 ft 351 kts 351°
2026-04-21 16:34 -3.23177 -79.72557 20605 ft 351 kts 351°
2026-04-21 16:35 -3.20791 -79.72861 20192 ft 350 kts 351°
2026-04-21 16:35 -3.18341 -79.73175 19758 ft 350 kts 351°
2026-04-21 16:35 -3.15924 -79.73486 19330 ft 350 kts 350°
2026-04-21 16:35 -3.13508 -79.73799 18900 ft 350 kts 351°
2026-04-21 16:36 -3.11091 -79.74111 18471 ft 350 kts 351°
2026-04-21 16:36 -3.08675 -79.74421 17998 ft 350 kts 350°
2026-04-21 16:36 -3.06265 -79.74728 17565 ft 348 kts 350°
2026-04-21 16:36 -3.03867 -79.75030 17148 ft 346 kts 350°
2026-04-21 16:37 -3.01485 -79.75332 16732 ft 344 kts 350°
2026-04-21 16:37 -2.99114 -79.75633 16324 ft 343 kts 350°
2026-04-21 16:37 -2.96753 -79.75936 15916 ft 341 kts 351°
2026-04-21 16:37 -2.94402 -79.76239 15513 ft 340 kts 350°
2026-04-21 16:38 -2.92057 -79.76541 15116 ft 339 kts 350°
2026-04-21 16:38 -2.89728 -79.76839 14716 ft 337 kts 351°
2026-04-21 16:38 -2.87423 -79.77132 14318 ft 330 kts 351°
2026-04-21 16:38 -2.85171 -79.77419 13904 ft 323 kts 351°
2026-04-21 16:39 -2.82969 -79.77699 13493 ft 317 kts 351°
2026-04-21 16:39 -2.80786 -79.77982 13102 ft 316 kts 349°
2026-04-21 16:39 -2.78677 -79.78539 12722 ft 312 kts 338°
2026-04-21 16:39 -2.76662 -79.79338 12329 ft 311 kts 338°
2026-04-21 16:40 -2.74652 -79.80134 11952 ft 310 kts 338°
2026-04-21 16:40 -2.72620 -79.80937 11547 ft 310 kts 338°
2026-04-21 16:40 -2.70619 -79.81727 11149 ft 309 kts 338°
2026-04-21 16:40 -2.68622 -79.82516 10722 ft 308 kts 338°
2026-04-21 16:41 -2.67307 -79.83035 10454 ft 308 kts 338°
2026-04-21 16:41 -2.65317 -79.83823 10049 ft 307 kts 339°
2026-04-21 16:41 -2.63350 -79.84604 9828 ft 299 kts 339°
2026-04-21 16:41 -2.61444 -79.85359 9402 ft 292 kts 339°
2026-04-21 16:42 -2.59555 -79.86104 8826 ft 292 kts 339°
2026-04-21 16:42 -2.57684 -79.86845 8387 ft 286 kts 339°
2026-04-21 16:42 -2.55854 -79.87570 7934 ft 282 kts 339°
2026-04-21 16:42 -2.54034 -79.88290 7503 ft 282 kts 339°
2026-04-21 16:43 -2.52231 -79.89003 7083 ft 274 kts 339°
2026-04-21 16:43 -2.50495 -79.89689 6687 ft 263 kts 339°
2026-04-21 16:43 -2.48824 -79.90348 6276 ft 254 kts 339°
2026-04-21 16:43 -2.47200 -79.90987 5866 ft 245 kts 339°
2026-04-21 16:44 -2.45645 -79.91600 5482 ft 236 kts 339°
2026-04-21 16:44 -2.44135 -79.92196 5115 ft 230 kts 339°
2026-04-21 16:44 -2.42669 -79.92776 4760 ft 224 kts 339°
2026-04-21 16:44 -2.41239 -79.93342 4396 ft 219 kts 339°
2026-04-21 16:45 -2.39843 -79.93895 4032 ft 213 kts 339°
2026-04-21 16:45 -2.38463 -79.94439 3698 ft 207 kts 339°
2026-04-21 16:45 -2.37150 -79.94956 3662 ft 199 kts 339°
2026-04-21 16:45 -2.35907 -79.95447 3599 ft 185 kts 339°
2026-04-21 16:46 -2.34747 -79.95906 3499 ft 174 kts 339°
2026-04-21 16:46 -2.33681 -79.96328 3431 ft 154 kts 339°
2026-04-21 16:46 -2.32703 -79.96696 3374 ft 147 kts 344°
2026-04-21 16:46 -2.31704 -79.96856 3304 ft 146 kts 358°
2026-04-21 16:47 -2.30693 -79.96767 3196 ft 147 kts 12°
2026-04-21 16:47 -2.29739 -79.96430 2978 ft 146 kts 27°
2026-04-21 16:47 -2.28866 -79.95927 2776 ft 144 kts 30°
2026-04-21 16:47 -2.27995 -79.95425 2595 ft 144 kts 29°
2026-04-21 16:48 -2.27126 -79.94926 2399 ft 144 kts 30°
2026-04-21 16:48 -2.26257 -79.94426 2215 ft 144 kts 30°
2026-04-21 16:48 -2.25391 -79.93926 2010 ft 144 kts 30°
2026-04-21 16:48 -2.24525 -79.93426 1813 ft 144 kts 30°
2026-04-21 16:49 -2.23657 -79.92927 1621 ft 144 kts 30°
2026-04-21 16:49 -2.22791 -79.92430 1419 ft 144 kts 30°
2026-04-21 16:49 -2.21924 -79.91931 1235 ft 143 kts 30°
2026-04-21 16:49 -2.21062 -79.91436 1046 ft 143 kts 30°
2026-04-21 16:50 -2.20203 -79.90943 872 ft 142 kts 30°
2026-04-21 16:50 -2.19344 -79.90448 679 ft 142 kts 31°
2026-04-21 16:50 -2.18490 -79.89951 449 ft 141 kts 32°
2026-04-21 16:50 -2.17647 -79.89453 257 ft 141 kts 32°
2026-04-21 16:51 -2.16778 -79.88964 58 ft 141 kts 32°
2026-04-21 16:51 -2.16002 -79.88513 27 ft 110 kts 30°
2026-04-21 16:51 -2.15495 -79.88227 26 ft 46 kts 29°
2026-04-21 16:51 -2.15362 -79.88149 27 ft 10 kts 32°
2026-04-21 16:52 -2.15304 -79.88150 27 ft 8 kts 315°
2026-04-21 16:52 -2.15280 -79.88192 28 ft 6 kts 298°
2026-04-21 16:52 -2.15262 -79.88225 28 ft 5 kts 299°
2026-04-21 16:52 -2.15248 -79.88250 28 ft 4 kts 300°
2026-04-21 16:53 -2.15236 -79.88270 28 ft 3 kts 300°
2026-04-21 16:53 -2.15224 -79.88291 29 ft 3 kts 300°
2026-04-21 16:53 -2.15205 -79.88326 29 ft 13 kts 298°
2026-04-21 16:53 -2.15157 -79.88393 29 ft 10 kts 331°
2026-04-21 16:54 -2.15098 -79.88377 29 ft 8 kts 28°
2026-04-21 16:54 -2.15053 -79.88365 29 ft 6 kts 340°
2026-04-21 16:54 -2.15032 -79.88395 29 ft 5 kts 300°
2026-04-21 16:54 -2.15025 -79.88409 29 ft 1 kts 300°
2026-04-21 16:55 -2.15023 -79.88411 29 ft 0 kts 301°
2026-04-21 16:55 -2.15022 -79.88413 29 ft 0 kts 301°